Flag for Angola Weather past 2 weeks in Lubango, Angola

Now
79 °F

Sunny.


Feels Like: 78 °F
Forecast: 57 / 76 °F
Wind: 14 mph from Northeast

Location: Ondangwa

Current Time: Sep 2, 2014 at 10:40:43 AM

Latest Report: Sep 2, 2014 at 10:00 AM


Visibility: 10 mi

Pressure: 30.15 "Hg

Humidity: 18%

Dew point: 32 °F

Location of LubangoLocation

Historic Weather in Lubango — Graph

°F

Lubango temperature yesterday

Maximum temperature yesterday: 93 °F (at 2:00 PM)
Minimum temperature yesterday: 54 °F (at 4:00 AM)
Average temperature yesterday: 72 °F

Past Weeks' High & Low Weather Summary

 TemperatureHumidityPressure
High95 °F (Aug 24, 2:00 PM)41% (Sep 2, 6:00 AM)30.15 "Hg (Sep 2, 6:00 AM)
Low46 °F (Aug 29, 6:00 AM)5% (Aug 26, 11:00 AM)29.92 "Hg (Aug 20, 4:00 PM)
Average72 °F17%30.04 "Hg
* Reported Aug 18 9:00 AM — Sep 2 9:00 AM, Lubango, Weather by CustomWeather, © 2014

Note: Actual official high and low records may vary slightly from our data, if they occured in-between our weather recording intervals... More about our weather records

Advertising

Lubango weather history for previous 24 hours

 ConditionsComfort  
Time TempWeatherWind HumidityBarometerVisibility
9:00 AM
Sep 2
72 °FSunny.13 mph23%30.15 "Hg10 mi
8:00 AM66 °FSunny.7 mph30%30.15 "Hg10 mi
7:00 AM59 °FSunny.3 mph39%30.12 "Hg10 mi
6:00 AM57 °FRefreshingly cool.5 mph41%30.12 "HgN/A
5:00 AM59 °FRefreshingly cool.5 mph39%30.09 "HgN/A
4:00 AM63 °FMild.6 mph32%30.07 "HgN/A
3:00 AM63 °FMild.5 mph30%30.07 "HgN/A
2:00 AM66 °FMild.5 mph26%30.07 "HgN/A
1:00 AM64 °FMild.3 mph21%30.07 "HgN/A
12:00 AM66 °FMild.5 mph19%30.07 "HgN/A
11:00 PM
Sep 1
66 °FMild.5 mph17%30.09 "HgN/A
10:00 PM70 °FMild.5 mph13%30.09 "HgN/A
9:00 PM73 °FMild.5 mph13%30.07 "HgN/A
8:00 PM75 °FMild.2 mph12%30.07 "HgN/A
7:00 PM77 °FClear.3 mph12%30.04 "Hg10 mi
6:00 PM82 °FPleasantly warm.3 mph9%30.01 "HgN/A
5:00 PM88 °FPleasantly warm.5 mph9%30.01 "HgN/A
3:00 PM91 °FHot.5 mph7%30.01 "HgN/A
2:00 PM93 °FExtremely hot.6 mph6%30.01 "HgN/A
1:00 PM91 °FSunny.9 mph9%30.04 "Hg10 mi
12:00 PM90 °FSunny.8 mph13%30.07 "Hg10 mi
11:00 AM84 °FSunny.14 mph15%30.12 "Hg10 mi
10:00 AM79 °FSunny.13 mph18%30.12 "Hg10 mi
Weather by CustomWeather, © 2014

See weather overviewHow to use our weather pages